Retour au catalogue

SL-8 DEB

ActifLEO
NORAD 18526·DEBRIS·🇷🇺 Russia

Lancé Jun 9, 1987 depuis Plesetsk Cosmodrome

Loading…

Prochains Passages (prochaines 24 heures)

TLE

FraisSource: Space-Track

Époque: Sep 14, 2026, 08:45 UTC

1 18526U 87049C   26257.36513212  .00001521  00000-0  28359-3 0  9994
2 18526  74.0339  22.5970 0002678 252.2988 138.5913 14.65924629 72494

Suivez SL-8 DEB en temps réel avec AllMySat

Download on the App Store